Regional Weather Roundup
Issued by NWS

Home | Current Version | Previous Version | Graphics & Text | Print | Product List | Glossary On
Versions: 1 2 3 4 5 6 7 8 9 10 11 12 13 14 15 16 17 18 19 20 21 22 23 24 25 26 27 28 29 30 31 32 33 34 35 36 37 38 39 40 41 42 43 44 45 46 47 48 49 50
221
ASUS43 KDMX 110203
RWRIA

WEATHER ROUNDUP FOR IOWA
NATIONAL WEATHER SERVICE DES MOINES IA
800 PM CST WED FEB 10 2016

NOTE: "FAIR" INDICATES FEW OR NO CLOUDS BELOW 12,000 FEET WITH NO
SIGNIFICANT WEATHER AND/OR OBSTRUCTIONS TO VISIBILITY.

* - THESE STATIONS ARE NOT NWS STATIONS...THUS NOT UNDER NWS
QUALITY CONTROL.  THEY ALSO DO NOT REPORT WEATHER SUCH
AS PRECIPITATION OR FOG.

IAZ001>003-012>014-020>022-031>034-043>046-110300-
   NORTHWEST IOWA

CITY           SKY/WX    TMP DP  RH WIND       PRES   REMARKS
CARROLL *      CLOUDY    16  12  86 NE13      30.14R WCI   2
CHEROKEE *     CLOUDY    15  11  85 NE9       30.16R WCI   3
DENISON *      CLOUDY    18  14  86 E13       30.10R WCI   4
LE MARS *      CLOUDY    18  14  86 NE10      30.16R WCI   6
ORANGE CITY *  CLOUDY    16  12  86 E9        30.14R WCI   4
SHELDON *      CLOUDY    12   9  85 E9G15     30.14R WCI   0
SIOUX CITY     CLOUDY    20  13  74 E9        30.13R WCI   9
SPENCER        CLOUDY    13   6  74 NE9       30.16R WCI   1
STORM LAKE *   CLOUDY    14  12  92 NE14      30.13R WCI  -1
$$

IAZ055>058-069>071-079>083-090>094-110300-
   SOUTHWEST IOWA

CITY           SKY/WX    TMP DP  RH WIND       PRES   REMARKS
ATLANTIC *     CLOUDY    21  18  86 NE8G15    30.10R WCI  12
AUDUBON *      CLOUDY    18  14  86 NE9       30.11R WCI   6
CLARINDA *     CLOUDY    28  23  80 E9        30.06R WCI  20
COUNCIL BLFS * CLOUDY    23  21  93 NE14      30.06R WCI  11
CRESTON *      CLOUDY    21  18  86 E17       30.07R WCI   7
HARLAN  *      CLOUDY    19  18  93 NE12      30.14R WCI   7
LAMONI         CLOUDY    22  18  85 E7        30.07R WCI  13
RED OAK *      CLOUDY    27  23  86 NE15      30.07R WCI  15
SHENANDOAH *   CLOUDY    30  27  86 NE15      30.06R WCI  19
$$

IAZ047>049-059>061-072>074-084-110300-
   CENTRAL IOWA

CITY           SKY/WX    TMP DP  RH WIND       PRES   REMARKS
AMES           CLOUDY    14   7  73 NE8       30.17R WCI   3
ANKENY *       CLOUDY    18  10  73 NE8       30.16R WCI   7
BOONE *        CLOUDY    14   7  73 NE9       30.14R WCI   2
CHARITON *     CLOUDY    19  16  86 E6        30.12R WCI  11
DES MOINES     CLOUDY    19  11  70 NE10      30.15R WCI   7
GRINNELL*      CLOUDY    16   9  73 NE7       30.15R WCI   6
KNOXVILLE *    CLOUDY    19  14  79 NE7       30.13R WCI  10
MARSHALLTOWN   CLOUDY    14   5  67 NE9       30.15R WCI   2
NEWTON *       CLOUDY    18  10  73 NE7       30.15R WCI   8
PELLA *        CLOUDY    19  13  79 CALM      30.16R
$$

IAZ004>006-015-016-023>025-035-036-110300-
   NORTH CENTRAL IOWA

CITY           SKY/WX    TMP DP  RH WIND       PRES   REMARKS
ALGONA *       CLOUDY    14   7  73 NE6       30.16R WCI   5
CLARION *      CLOUDY    12   1  62 NE8       30.16S WCI   1
ESTHERVILLE    CLOUDY    11   4  73 N9        30.17R WCI  -2
FORT DODGE *   CLOUDY    12   3  67 NE6       30.17R WCI   3
MASON CITY     CLOUDY     5  -2  72 NW5       30.19R WCI  -4
FOREST CITY *  MOCLDY     5   0  78 CALM      30.18R
WEBSTER CITY * CLOUDY    14   5  67 NE7       30.14R WCI   4
IOWA FALLS *   CLOUDY    14   5  67 N8        30.16R WCI   3
$$

IAZ007>011-017>019-026>030-037>042-050>054-066-110300-
   NORTHEAST IOWA

CITY           SKY/WX    TMP DP  RH WIND       PRES   REMARKS
CEDAR RAPIDS   CLOUDY    13   4  67 N9        30.15R WCI   1
CHARLES CITY * CLOUDY     7  -4  61 NW3       30.17R
CLINTON *      CLEAR      9   3  77 N8        30.16R WCI  -3
DECORAH *      CLOUDY     7  -4  61 NW9       30.15R WCI  -7
DUBUQUE        CLEAR      8   0  69 CALM      30.13R
MONTICELLO *   CLEAR     10   3  72 N6        30.15R WCI   1
OELWEIN *      CLOUDY     7  -2  66 NW8       30.16R WCI  -6
WATERLOO       CLOUDY     6  -2  69 NW7       30.17R WCI  -6
$$

IAZ064-065-067-068-078-110300-
   EAST CENTRAL IOWA

CITY           SKY/WX    TMP DP  RH WIND       PRES   REMARKS
DAVENPORT      CLEAR     12   3  67 N5        30.15R WCI   4
IOWA CITY      CLOUDY    18   5  57 N6        30.17R WCI  10
MT. PLEASANT * CLOUDY    21  16  80 NE3       30.15R
MUSCATINE *    CLOUDY    19   5  53 N6        30.18R WCI  11
QUAD CITIES    CLEAR     16   2  54 NW6       30.16R WCI   7
$$

IAZ062-063-075>077-085>089-095>099-110300-
   SOUTHEAST IOWA

CITY           SKY/WX    TMP DP  RH WIND       PRES   REMARKS
BURLINGTON     CLOUDY    19  14  81 CALM      30.14R
FAIRFIELD *    CLOUDY    19  12  73 CALM      30.15R
FORT MADISON * CLOUDY    18  14  86 CALM      30.15R
KEOKUK *       CLOUDY    19  16  86 E3        30.14R
OSKALOOSA *    CLOUDY    18  13  82 E5        30.15R WCI  11
OTTUMWA        CLOUDY    18  14  84 NE6       30.15R WCI  10
WASHINGTON *   CLOUDY    18  12  79 N5        30.16R WCI  11
$$

ABBREVIATIONS USED IN REMARKS
   TC - TEMPERATURES IN CELSIUS
  WCI - WIND CHILL INDEX
   HX - HEAT INDEX
  VSB - VISIBILITY
$$





USA.gov is the U.S. government's official web portal to all federal, state and local government web resources and services.